When you browse on this site, cookies collect data to enhance your experience and personalize the content and advertising you see.
Visit our Privacy Policy to learn more. By continuing to use the site, you agree to this use of cookies and data.
  • En España
  • Lista de países
  • Para 7 días
  • Temperatura del agua
  • Mapa Satelital
  • El tiempo en el mapa
  • Informadores
  • user-avatar
    Iniciar sesión

    Tiempo cada hora Atyrau

    Hoy, 25 Junio, Martes

    Tiempo Temperatura Precipitaciones Viento Presión Humedad
    00:00 +32°C° 0 mm 2 mps 761 mmHg 20%
    01:00 +32°C° 0 mm 2 mps 761 mmHg 21%
    02:00 +31°C° 0 mm 1 mps 761 mmHg 23%
    03:00 +31°C° 0 mm 1 mps 760 mmHg 25%
    04:00 +32°C° 0 mm 2 mps 760 mmHg 24%
    05:00 +34°C° 0 mm 3 mps 761 mmHg 23%
    06:00 +35°C° 0 mm 4 mps 761 mmHg 22%
    07:00 +37°C° 0 mm 4 mps 761 mmHg 21%
    08:00 +38°C° 0 mm 3 mps 761 mmHg 19%
    09:00 +39°C° 0 mm 2 mps 761 mmHg 17%
    10:00 +40°C° 0 mm 4 mps 761 mmHg 18%
    11:00 +40°C° 0 mm 6 mps 761 mmHg 19%
    12:00 +39°C° 0 mm 8 mps 761 mmHg 20%
    13:00 +40°C° 0 mm 7 mps 761 mmHg 20%
    14:00 +40°C° 0 mm 6 mps 761 mmHg 19%
    15:00 +40°C° 0 mm 6 mps 761 mmHg 18%
    16:00 +40°C° 0 mm 5 mps 761 mmHg 19%
    17:00 +38°C° 0 mm 4 mps 761 mmHg 20%
    18:00 +38°C° 0 mm 4 mps 760 mmHg 20%
    19:00 +35°C° 0 mm 6 mps 761 mmHg 30%
    20:00 +33°C° 0 mm 8 mps 761 mmHg 40%
    21:00 +29°C° 0 mm 11 mps 762 mmHg 49%
    22:00 +29°C° 0 mm 10 mps 761 mmHg 51%
    23:00 +29°C° 0 mm 8 mps 761 mmHg 52%

    Mañana, 26 Junio, Miércoles

    Tiempo Temperatura Precipitaciones Viento Presión Humedad
    00:00 +28°C° 0 mm 7 mps 760 mmHg 54%
    01:00 +28°C° 0 mm 7 mps 761 mmHg 53%
    02:00 +28°C° 0 mm 6 mps 761 mmHg 53%
    03:00 +27°C° 0 mm 6 mps 761 mmHg 52%
    04:00 +27°C° 0 mm 6 mps 761 mmHg 53%
    05:00 +27°C° 0 mm 6 mps 761 mmHg 53%
    06:00 +27°C° 0 mm 7 mps 761 mmHg 54%
    07:00 +28°C° 0 mm 7 mps 761 mmHg 49%
    08:00 +29°C° 0 mm 7 mps 762 mmHg 45%
    09:00 +30°C° 0 mm 7 mps 762 mmHg 41%
    10:00 +32°C° 0 mm 7 mps 762 mmHg 37%
    11:00 +33°C° 0 mm 8 mps 762 mmHg 33%
    12:00 +34°C° 0 mm 8 mps 762 mmHg 29%
    13:00 +34°C° 0 mm 8 mps 762 mmHg 25%
    14:00 +34°C° 0 mm 8 mps 762 mmHg 20%
    15:00 +35°C° 0 mm 7 mps 761 mmHg 16%
    16:00 +34°C° 0 mm 7 mps 761 mmHg 16%
    17:00 +33°C° 0 mm 8 mps 761 mmHg 16%
    18:00 +32°C° 0 mm 8 mps 761 mmHg 16%
    19:00 +30°C° 0 mm 7 mps 761 mmHg 19%
    20:00 +29°C° 0 mm 7 mps 761 mmHg 22%
    21:00 +27°C° 0 mm 7 mps 762 mmHg 25%
    22:00 +27°C° 0 mm 6 mps 762 mmHg 27%
    23:00 +26°C° 0 mm 6 mps 762 mmHg 29%

    Pasado mañana, 27 Junio, Jueves

    Tiempo Temperatura Precipitaciones Viento Presión Humedad
    00:00 +25°C° 0 mm 5 mps 762 mmHg 31%
    01:00 +23°C° 0 mm 5 mps 762 mmHg 35%
    02:00 +23°C° 0 mm 5 mps 762 mmHg 38%
    03:00 +22°C° 0 mm 4 mps 762 mmHg 41%
    04:00 +22°C° 0 mm 4 mps 762 mmHg 40%
    05:00 +23°C° 0 mm 4 mps 762 mmHg 40%
    06:00 +25°C° 0 mm 4 mps 762 mmHg 39%
    07:00 +25°C° 0 mm 4 mps 762 mmHg 37%
    08:00 +26°C° 0 mm 4 mps 762 mmHg 34%
    09:00 +27°C° 0 mm 4 mps 762 mmHg 32%
    10:00 +28°C° 0 mm 4 mps 761 mmHg 30%
    11:00 +29°C° 0 mm 4 mps 761 mmHg 27%
    12:00 +30°C° 0 mm 4 mps 761 mmHg 24%
    13:00 +30°C° 0 mm 4 mps 760 mmHg 23%
    14:00 +30°C° 0 mm 5 mps 760 mmHg 22%
    15:00 +32°C° 0 mm 5 mps 760 mmHg 22%
    16:00 +30°C° 0 mm 5 mps 759 mmHg 22%
    17:00 +30°C° 0 mm 5 mps 759 mmHg 23%
    18:00 +30°C° 0 mm 5 mps 759 mmHg 24%
    19:00 +28°C° 0 mm 4 mps 759 mmHg 27%
    20:00 +27°C° 0 mm 3 mps 759 mmHg 31%
    21:00 +26°C° 0 mm 3 mps 759 mmHg 35%
    22:00 +25°C° 0 mm 2 mps 758 mmHg 37%
    23:00 +25°C° 0 mm 2 mps 758 mmHg 39%

    28 Junio, Viernes

    Tiempo Temperatura Precipitaciones Viento Presión Humedad
    00:00 +24°C° 0 mm 2 mps 758 mmHg 41%
    01:00 +24°C° 0 mm 2 mps 757 mmHg 38%
    02:00 +23°C° 0 mm 2 mps 757 mmHg 35%
    03:00 +22°C° 0 mm 3 mps 757 mmHg 33%
    04:00 +24°C° 0 mm 3 mps 757 mmHg 31%
    05:00 +25°C° 0 mm 3 mps 757 mmHg 30%
    06:00 +26°C° 0 mm 4 mps 757 mmHg 28%
    07:00 +28°C° 0 mm 4 mps 757 mmHg 28%
    08:00 +29°C° 0 mm 3 mps 757 mmHg 27%
    09:00 +30°C° 0 mm 3 mps 757 mmHg 27%
    10:00 +32°C° 0 mm 4 mps 756 mmHg 26%
    11:00 +32°C° 0 mm 4 mps 756 mmHg 25%
    12:00 +33°C° 0 mm 5 mps 756 mmHg 24%
    13:00 +33°C° 0 mm 4 mps 755 mmHg 23%
    14:00 +33°C° 0 mm 4 mps 755 mmHg 22%
    15:00 +34°C° 0 mm 4 mps 755 mmHg 21%
    16:00 +33°C° 0 mm 4 mps 755 mmHg 20%
    17:00 +33°C° 0 mm 4 mps 755 mmHg 19%
    18:00 +33°C° 0 mm 4 mps 754 mmHg 18%
    19:00 +31°C° 0 mm 3 mps 754 mmHg 20%
    20:00 +30°C° 0 mm 3 mps 754 mmHg 22%
    21:00 +28°C° 0 mm 2 mps 755 mmHg 24%
    22:00 +28°C° 0 mm 3 mps 754 mmHg 24%
    23:00 +28°C° 0 mm 3 mps 754 mmHg 24%

    29 Junio, Sábado

    Tiempo Temperatura Precipitaciones Viento Presión Humedad
    00:00 +27°C° 0 mm 3 mps 754 mmHg 24%
    01:00 +27°C° 0 mm 4 mps 754 mmHg 24%
    02:00 +27°C° 0 mm 4 mps 754 mmHg 25%
    03:00 +27°C° 0 mm 4 mps 754 mmHg 25%
    04:00 +28°C° 0 mm 5 mps 754 mmHg 24%
    05:00 +29°C° 0 mm 5 mps 753 mmHg 24%
    06:00 +30°C° 0 mm 6 mps 753 mmHg 23%
    07:00 +33°C° 0 mm 6 mps 753 mmHg 21%
    08:00 +35°C° 0 mm 7 mps 753 mmHg 19%
    09:00 +38°C° 0 mm 7 mps 753 mmHg 17%
    10:00 +38°C° 0 mm 7 mps 753 mmHg 17%
    11:00 +38°C° 0 mm 7 mps 752 mmHg 18%
    12:00 +38°C° 0 mm 7 mps 752 mmHg 18%
    13:00 +38°C° 0 mm 7 mps 752 mmHg 20%
    14:00 +36°C° 0 mm 6 mps 752 mmHg 22%
    15:00 +35°C° 0 mm 6 mps 752 mmHg 24%
    16:00 +34°C° 0 mm 5 mps 752 mmHg 26%
    17:00 +33°C° 0 mm 4 mps 753 mmHg 28%
    18:00 +33°C° 0 mm 3 mps 753 mmHg 30%
    19:00 +31°C° 0 mm 3 mps 753 mmHg 30%
    20:00 +31°C° 0 mm 2 mps 753 mmHg 31%
    21:00 +30°C° 0 mm 2 mps 753 mmHg 32%
    22:00 +30°C° 0.1 mm 2 mps 753 mmHg 33%
    23:00 +30°C° 0.1 mm 1 mps 753 mmHg 35%

    30 Junio, Domingo

    Tiempo Temperatura Precipitaciones Viento Presión Humedad
    00:00 +29°C° 0.1 mm 1 mps 752 mmHg 36%
    01:00 +29°C° 0 mm 1 mps 752 mmHg 37%
    02:00 +28°C° 0 mm 1 mps 752 mmHg 38%
    03:00 +27°C° 0 mm 1 mps 752 mmHg 39%
    04:00 +28°C° 0 mm 3 mps 752 mmHg 39%
    05:00 +28°C° 0 mm 5 mps 753 mmHg 39%
    06:00 +29°C° 0 mm 7 mps 753 mmHg 39%
    07:00 +30°C° 0 mm 7 mps 753 mmHg 38%
    08:00 +32°C° 0 mm 7 mps 753 mmHg 36%
    09:00 +33°C° 0 mm 7 mps 753 mmHg 35%
    10:00 +33°C° 0 mm 7 mps 753 mmHg 33%
    11:00 +34°C° 0 mm 6 mps 753 mmHg 32%
    12:00 +35°C° 0 mm 6 mps 753 mmHg 31%
    13:00 +35°C° 0 mm 5 mps 753 mmHg 30%
    14:00 +35°C° 0 mm 5 mps 753 mmHg 29%
    15:00 +35°C° 0 mm 4 mps 753 mmHg 29%
    16:00 +34°C° 0.1 mm 4 mps 753 mmHg 34%
    17:00 +32°C° 0.1 mm 5 mps 753 mmHg 39%
    18:00 +30°C° 0.1 mm 5 mps 753 mmHg 44%
    19:00 +29°C° 0.1 mm 5 mps 754 mmHg 45%
    20:00 +29°C° 0.1 mm 6 mps 754 mmHg 45%
    21:00 +28°C° 0.1 mm 6 mps 754 mmHg 46%
    22:00 +27°C° 0.6 mm 5 mps 754 mmHg 50%
    23:00 +26°C° 0.6 mm 5 mps 754 mmHg 53%
    Mostrar más